This is the latest recevied weather packets stored in our database for station/object N5DGC. If no packets are shown the sender has not sent any weather packets the latest 10 day(s).
| Time | Temp. | Humidity | Pressure | Rain* | Wind** | Luminosity | Snow |
|---|---|---|---|---|---|---|---|
| 1777564620 | 17.78° C | 19% | 1234.1 hPa | 0 mm | - | 689 W/m² | - |
| 1777564316 | 17.78° C | 20% | 1234.1 hPa | 0 mm | - | 342 W/m² | - |
| 1777564012 | 17.78° C | 18% | 1234 hPa | 0 mm | - | 564 W/m² | - |
| 1777563708 | 17.78° C | 22% | 1233.9 hPa | 0 mm | - | 242 W/m² | - |
| 1777563404 | 18.33° C | 24% | 1233.9 hPa | 0 mm | - | 272 W/m² | - |
| 1777563099 | 17.78° C | 23% | 1234.1 hPa | 0 mm | - | 266 W/m² | - |
| 1777562795 | 17.22° C | 26% | 1234.1 hPa | 0 mm | - | 399 W/m² | - |
| 1777562493 | 16.67° C | 27% | 1234 hPa | 0 mm | - | 415 W/m² | - |
| 1777562190 | 16.67° C | 28% | 1234.1 hPa | 0 mm | - | 358 W/m² | - |
| 1777561888 | 16.67° C | 28% | 1234.2 hPa | 0 mm | - | 222 W/m² | - |
| 1777561585 | 16.11° C | 29% | 1234.1 hPa | 0 mm | - | 241 W/m² | - |
| 1777561281 | 16.11° C | 28% | 1234 hPa | 0 mm | - | 225 W/m² | - |
| 1777560980 | 15.56° C | 29% | 1234.1 hPa | 0 mm | - | 206 W/m² | - |
| 1777560676 | 15.56° C | 29% | 1234 hPa | 0 mm | - | 205 W/m² | - |
| 1777560374 | 16.11° C | 27% | 1234.1 hPa | 0 mm | - | 179 W/m² | - |
| 1777560072 | 16.11° C | 26% | 1234.4 hPa | 0 mm | - | 169 W/m² | - |
| 1777559768 | 15.56° C | 26% | 1234.1 hPa | 0 mm | - | 162 W/m² | - |
| 1777559465 | 15.56° C | 24% | 1234.1 hPa | 0 mm | - | 163 W/m² | - |
| 1777559162 | 15° C | 21% | 1234.2 hPa | 0 mm | - | 136 W/m² | - |
| 1777558861 | 15° C | 21% | 1234.4 hPa | 0 mm | - | 137 W/m² | - |
| 1777558557 | 15° C | 20% | 1234.5 hPa | 0 mm | - | 129 W/m² | - |
| 1777558253 | 14.44° C | 22% | 1234.5 hPa | 0 mm | - | 117 W/m² | - |
| 1777557949 | 13.89° C | 23% | 1234.5 hPa | 0 mm | - | 113 W/m² | - |
| 1777557647 | 13.89° C | 22% | 1234.2 hPa | 0 mm | - | 110 W/m² | - |
| 1777557343 | 13.89° C | 22% | 1234.4 hPa | 0 mm | - | 96 W/m² | - |
* Rain latest hour (hover to see other rain measurements)
** Current wind speed in m/s (hover to see current wind gust speed)